sat.trackr.live / text

‹ back to catalog

STARLINK-37915

NORAD 69722 · 2026-147U

PAYLOAD ACTIVE UNKNOWN

§ Identity

Operator
Country
US
Launch date
2026-06-28
Launch site
AFWTR
Launch vehicle
Mass (kg)
RCS (m²)

Purposes: comms

External: N2YO · Heavens-Above · Gunter

§ Orbital elements

Epoch: 2026-09-19T19:54:27.480672Z

Period
93.90 min
Inclination
97.2837°
Eccentricity
0.0001100
Mean motion
15.33470019 rev/d
Perigee alt
464.7 km
Apogee alt
466.2 km
Semi-major
6,843.6 km
B*
5.3274e-4
RAAN
299.2401°
Arg perigee
242.8071°
Mean anomaly
117.3059°
Rev number
1,413

§ Raw data

STARLINK-379151 69722U 26147U   26262.82948473  .00017176  00000+0  53274-3 0  99942 69722  97.2837 299.2401 0001100 242.8071 117.3059 15.33470019 14135

JSON: /api/v1/satellites/69722 · /tle

For live sub-satellite position, see the globe view (requires WebGL).

§ Visibility from observer

Set your observer location to see the next 7 days of passes ≥ 10°. The values pass through the URL so the page stays shareable.

No JS? Fill the form by hand. The geolocation button needs JavaScript.